Location: M?digepalle
(16.1753°N, 80.3496°E)
Time: 07:31:55
(UTC+00:00)

Cosmos 968 Rocket - Pass Details

Date: 29 October 2020
Orbit: 741 x 770 km, 74.0° (Epoch: 27 November)

Event Time Altitude Azimuth Distance (km) Brightness Sun altitude
Rises 13:25:22 0° 351° (N) 3,202 6.7 -18.6°
Reaches altitude 10° 13:27:45 10° 354° (N) 2,272 5.9 -19.2°
Maximum altitude 13:32:52 65° 76° (ENE) 821 3.3 -20.4°
Drops below altitude 10° 13:37:55 10° 158° (SSE) 2,251 5.8 -21.6°
Sets 13:40:16 0° 161° (SSE) 3,170 6.6 -22.2°
